Weather in Khotilitsy

Russia / Tver Oblast     56°38′51″N   31°53′11″E
temp.,
°C
wind,
m/s
gust,
m/s
humid.,
%
clouds,
%
prec.,
mm/h
press.,
hPa
HPBL,
m
21 april, wed
wed2100:00+4e268983 0.0 1013404
03:00+1ne129585 0.0 101243
06:00+2nw2392100 0.0 1008193
09:00+3nw2596100 0.0 1007364
12:00+5wnw3676100 0.1 1005903
15:00+8w4663100 0.3 10051364
18:00+7wsw3671100 0.4 1005875
21:00+4ssw388861 0.6 1007149
22 april, thu
thu2200:00+4s31088100 0.0 1007247
03:00+3s31191100 0.0 1007293
06:00+3s3997100 0.0 1007258
09:00+8ssw477772 0.0 1008397
12:00+13ssw46475 0.0 10091696
15:00+15ssw473683 0.0 10082450
18:00+13s475368 0.1 10071401
21:00+8s398799 1.3 1007261
23 april, fri
fri2300:00+6sw3697100 0.5 1008281
03:00+5ssw2690100 3.2 1008263
06:00+5ssw3985100 0.1 1008561
09:00+5ssw5979100 0.1 10101103
12:00+7ssw595989 0.2 10101750
15:00+8sw6845100 0.3 10112062
18:00+6sw4857100 0.0 10111344
21:00+3ssw2573100 0.0 1012123
24 april, sat
sat2400:00+2ssw2478100 0.0 1011123
03:00+1w2486100 0.0 101090
06:000w2388100 0.0 1010112
09:00+3w2370100 0.0 1009665
12:00+6w3351100 0.2 10081745
15:00+7w3445100 0.9 10071835
18:00+6w4551100 0.2 10071403
21:00+2wsw378188 0.2 1008353
25 april, sun
sun2500:000wsw279413 0.0 1008219
03:00+1w3795100 0.1 1007508
06:000wsw489588 0.3 1007480
09:00+3wsw457381 0.4 1007931
12:00+4wsw4557100 0.1 10071542
15:00+5wsw4551100 0.3 10081696
18:00+5w2347100 0.0 10071443
21:00+1nw1164100 0.0 100811